When you browse on this site, cookies collect data to enhance your experience and personalize the content and advertising you see.
Visit our Privacy Policy to learn more. By continuing to use the site, you agree to this use of cookies and data.
  • Em Portugal
  • Lista de países
  • Para 7 dias
  • Temperatura da água
  • Mapas de satélite
  • Mapa do tempo
  • Widgets de tempo
  • user-avatar
    Iniciar Sessão

    Previsão horária em Victória

    Hoje, 22 Janeiro, Terça-feira

    Tempo Temperatura Precipitação Vento Pressão Humidade
    00:00 +26°C° 0 mm 4 m/s 748 mmHg 58%
    01:00 +25°C° 0 mm 4 m/s 748 mmHg 62%
    02:00 +25°C° 0 mm 3 m/s 747 mmHg 63%
    03:00 +24°C° 0 mm 3 m/s 747 mmHg 63%
    04:00 +24°C° 0 mm 2 m/s 747 mmHg 61%
    05:00 +25°C° 0 mm 2 m/s 747 mmHg 58%
    06:00 +26°C° 0 mm 3 m/s 747 mmHg 54%
    07:00 +27°C° 0 mm 3 m/s 748 mmHg 50%
    08:00 +30°C° 0 mm 2 m/s 748 mmHg 42%
    09:00 +34°C° 0 mm 2 m/s 748 mmHg 34%
    10:00 +37°C° 0 mm 2 m/s 748 mmHg 26%
    11:00 +39°C° 0 mm 2 m/s 747 mmHg 23%
    12:00 +40°C° 0 mm 3 m/s 747 mmHg 19%
    13:00 +43°C° 0 mm 3 m/s 746 mmHg 15%
    14:00 +43°C° 0 mm 3 m/s 746 mmHg 14%
    15:00 +43°C° 0 mm 3 m/s 745 mmHg 14%
    16:00 +43°C° 0 mm 3 m/s 745 mmHg 16%
    17:00 +42°C° 0 mm 3 m/s 745 mmHg 17%
    18:00 +40°C° 0 mm 3 m/s 745 mmHg 19%
    19:00 +39°C° 0 mm 2 m/s 745 mmHg 20%
    20:00 +36°C° 0 mm 3 m/s 746 mmHg 26%
    21:00 +34°C° 0 mm 4 m/s 746 mmHg 32%
    22:00 +30°C° 0 mm 5 m/s 746 mmHg 41%
    23:00 +29°C° 0 mm 4 m/s 746 mmHg 43%

    Amanhã, 23 Janeiro, Quarta-feira

    Tempo Temperatura Precipitação Vento Pressão Humidade
    00:00 +28°C° 0 mm 4 m/s 747 mmHg 45%
    01:00 +27°C° 0 mm 4 m/s 747 mmHg 48%
    02:00 +27°C° 0 mm 4 m/s 747 mmHg 48%
    03:00 +26°C° 0 mm 4 m/s 747 mmHg 49%
    04:00 +25°C° 0 mm 4 m/s 747 mmHg 50%
    05:00 +25°C° 0 mm 4 m/s 747 mmHg 49%
    06:00 +25°C° 0 mm 4 m/s 747 mmHg 48%
    07:00 +25°C° 0 mm 5 m/s 747 mmHg 48%
    08:00 +28°C° 0 mm 5 m/s 747 mmHg 41%
    09:00 +32°C° 0 mm 5 m/s 747 mmHg 35%
    10:00 +34°C° 0 mm 5 m/s 747 mmHg 28%
    11:00 +36°C° 0 mm 5 m/s 747 mmHg 23%
    12:00 +40°C° 0 mm 5 m/s 747 mmHg 19%
    13:00 +42°C° 0 mm 5 m/s 746 mmHg 14%
    14:00 +42°C° 0 mm 6 m/s 746 mmHg 15%
    15:00 +43°C° 0 mm 7 m/s 746 mmHg 16%
    16:00 +41°C° 0 mm 7 m/s 745 mmHg 17%
    17:00 +39°C° 0 mm 7 m/s 746 mmHg 22%
    18:00 +36°C° 0 mm 7 m/s 746 mmHg 26%
    19:00 +34°C° 0 mm 7 m/s 746 mmHg 31%
    20:00 +32°C° 0 mm 7 m/s 747 mmHg 39%
    21:00 +28°C° 0 mm 6 m/s 747 mmHg 47%
    22:00 +26°C° 0 mm 6 m/s 748 mmHg 55%
    23:00 +25°C° 0 mm 5 m/s 748 mmHg 57%

    Depois de amanhã, 24 Janeiro, Quinta-feira

    Tempo Temperatura Precipitação Vento Pressão Humidade
    00:00 +25°C° 0 mm 4 m/s 748 mmHg 59%
    01:00 +23°C° 0 mm 4 m/s 748 mmHg 61%
    02:00 +24°C° 0 mm 3 m/s 748 mmHg 62%
    03:00 +24°C° 0 mm 3 m/s 748 mmHg 62%
    04:00 +24°C° 0 mm 3 m/s 748 mmHg 62%
    05:00 +25°C° 0 mm 3 m/s 748 mmHg 59%
    06:00 +26°C° 0 mm 3 m/s 748 mmHg 57%
    07:00 +27°C° 0 mm 4 m/s 748 mmHg 54%
    08:00 +29°C° 0 mm 4 m/s 748 mmHg 49%
    09:00 +32°C° 0 mm 4 m/s 748 mmHg 43%
    10:00 +35°C° 0 mm 4 m/s 748 mmHg 38%
    11:00 +37°C° 0 mm 4 m/s 747 mmHg 33%
    12:00 +40°C° 0 mm 4 m/s 747 mmHg 29%
    13:00 +42°C° 0 mm 3 m/s 746 mmHg 24%
    14:00 +42°C° 0 mm 3 m/s 745 mmHg 22%
    15:00 +43°C° 0 mm 3 m/s 745 mmHg 19%
    16:00 +44°C° 0 mm 3 m/s 744 mmHg 17%
    17:00 +43°C° 0 mm 3 m/s 744 mmHg 18%
    18:00 +41°C° 0 mm 2 m/s 744 mmHg 20%
    19:00 +40°C° 0 mm 2 m/s 744 mmHg 21%
    20:00 +38°C° 0 mm 2 m/s 744 mmHg 23%
    21:00 +36°C° 0 mm 3 m/s 744 mmHg 24%
    22:00 +35°C° 0 mm 3 m/s 745 mmHg 26%
    23:00 +34°C° 0 mm 3 m/s 745 mmHg 26%

    25 Janeiro, Sexta-feira

    Tempo Temperatura Precipitação Vento Pressão Humidade
    00:00 +34°C° 0 mm 4 m/s 745 mmHg 26%
    01:00 +34°C° 0 mm 4 m/s 744 mmHg 27%
    02:00 +33°C° 0 mm 5 m/s 744 mmHg 32%
    03:00 +32°C° 0 mm 5 m/s 744 mmHg 37%
    04:00 +32°C° 0 mm 6 m/s 744 mmHg 43%
    05:00 +32°C° 0 mm 7 m/s 744 mmHg 44%
    06:00 +32°C° 0 mm 7 m/s 744 mmHg 45%
    07:00 +33°C° 0 mm 8 m/s 745 mmHg 46%
    08:00 +35°C° 0 mm 7 m/s 745 mmHg 42%
    09:00 +38°C° 0 mm 7 m/s 745 mmHg 37%
    10:00 +41°C° 0 mm 6 m/s 745 mmHg 32%
    11:00 +44°C° 0 mm 6 m/s 744 mmHg 27%
    12:00 +46°C° 0 mm 6 m/s 743 mmHg 22%
    13:00 +49°C° 0 mm 6 m/s 743 mmHg 17%
    14:00 +49°C° 0 mm 6 m/s 742 mmHg 16%
    15:00 +49°C° 0 mm 6 m/s 741 mmHg 15%
    16:00 +49°C° 0 mm 5 m/s 741 mmHg 13%
    17:00 +47°C° 0 mm 5 m/s 741 mmHg 15%
    18:00 +45°C° 0 mm 4 m/s 741 mmHg 16%
    19:00 +43°C° 0 mm 3 m/s 741 mmHg 17%
    20:00 +38°C° 0.3 mm 4 m/s 742 mmHg 28%
    21:00 +34°C° 0.3 mm 5 m/s 743 mmHg 39%
    22:00 +30°C° 0.3 mm 6 m/s 744 mmHg 49%
    23:00 +29°C° 0.2 mm 5 m/s 744 mmHg 52%

    26 Janeiro, Sábado

    Tempo Temperatura Precipitação Vento Pressão Humidade
    00:00 +28°C° 0.2 mm 4 m/s 744 mmHg 55%
    01:00 +28°C° 0.2 mm 3 m/s 743 mmHg 57%
    02:00 +27°C° 0 mm 4 m/s 744 mmHg 60%
    03:00 +26°C° 0 mm 4 m/s 744 mmHg 63%
    04:00 +25°C° 0 mm 5 m/s 744 mmHg 66%
    05:00 +25°C° 0 mm 4 m/s 744 mmHg 65%
    06:00 +25°C° 0 mm 4 m/s 744 mmHg 65%
    07:00 +25°C° 0 mm 3 m/s 744 mmHg 64%
    08:00 +27°C° 0 mm 3 m/s 744 mmHg 57%
    09:00 +29°C° 0 mm 2 m/s 744 mmHg 51%
    10:00 +31°C° 0 mm 2 m/s 744 mmHg 45%
    11:00 +34°C° 0 mm 3 m/s 743 mmHg 38%
    12:00 +37°C° 0 mm 3 m/s 743 mmHg 32%
    13:00 +40°C° 0 mm 4 m/s 742 mmHg 25%
    14:00 +41°C° 0 mm 5 m/s 742 mmHg 23%
    15:00 +41°C° 0 mm 5 m/s 741 mmHg 21%
    16:00 +42°C° 0 mm 5 m/s 740 mmHg 19%
    17:00 +41°C° 0 mm 6 m/s 741 mmHg 18%
    18:00 +39°C° 0 mm 6 m/s 741 mmHg 17%
    19:00 +38°C° 0 mm 6 m/s 741 mmHg 17%
    20:00 +34°C° 0 mm 6 m/s 741 mmHg 25%
    21:00 +30°C° 0 mm 6 m/s 742 mmHg 34%
    22:00 +28°C° 0 mm 7 m/s 743 mmHg 42%
    23:00 +24°C° 0 mm 7 m/s 743 mmHg 50%

    27 Janeiro, Domingo

    Tempo Temperatura Precipitação Vento Pressão Humidade
    00:00 +22°C° 0 mm 6 m/s 743 mmHg 58%
    01:00 +20°C° 0 mm 6 m/s 744 mmHg 67%
    02:00 +20°C° 0 mm 6 m/s 744 mmHg 68%
    03:00 +19°C° 0 mm 5 m/s 744 mmHg 69%
    04:00 +19°C° 0 mm 4 m/s 745 mmHg 70%
    05:00 +19°C° 0 mm 4 m/s 745 mmHg 68%
    06:00 +19°C° 0 mm 5 m/s 746 mmHg 67%
    07:00 +19°C° 0 mm 5 m/s 746 mmHg 65%
    08:00 +21°C° 0 mm 5 m/s 746 mmHg 55%
    09:00 +23°C° 0 mm 5 m/s 746 mmHg 44%
    10:00 +26°C° 0 mm 4 m/s 747 mmHg 34%
    11:00 +27°C° 0 mm 4 m/s 746 mmHg 30%
    12:00 +29°C° 0 mm 4 m/s 746 mmHg 26%
    13:00 +32°C° 0 mm 4 m/s 745 mmHg 21%
    14:00 +32°C° 0 mm 4 m/s 745 mmHg 20%
    15:00 +33°C° 0 mm 4 m/s 745 mmHg 18%
    16:00 +34°C° 0 mm 3 m/s 744 mmHg 17%
    17:00 +33°C° 0 mm 3 m/s 744 mmHg 19%
    18:00 +31°C° 0 mm 2 m/s 745 mmHg 20%
    19:00 +30°C° 0 mm 2 m/s 745 mmHg 22%
    20:00 +28°C° 0 mm 2 m/s 745 mmHg 28%
    21:00 +26°C° 0 mm 3 m/s 746 mmHg 33%
    22:00 +24°C° 0 mm 3 m/s 747 mmHg 39%
    23:00 +22°C° 0 mm 3 m/s 747 mmHg 45%
    Mostrar mais